User: anonymous   Login
Location: Unspecified
(0.0000°N, 0.0000°E)
Time: 19:19:30
(UTC+00:00)
Language:

OBJECT A - Orbit

View from above orbital plane
View from above orbital plane
View from above satellite
View from above satellite

Ground track
Ground track

The orbit is defined by the following mean orbital elements,

1 60088U          26145.61070247 +.00000000 +00000-0 +17015-3 0 00007
2 60088  28.9952 254.0284 0004014 191.0817 168.9689 14.84836811    01
Epoch (UTC): 25 May 2026 14:39:24
Eccentricity: 0.0004014
inclination: 28.9952°
perigee height: 611 km
apogee height: 617 km
right ascension of ascending node: 254.0284°
argument of perigee: 191.0817°
revolutions per day: 14.84836811
mean anomaly at epoch: 168.9689°

The dashed part of the orbit path shows where the satellite is in the earth's shadow,  

DLR